Retour au catalogue

ARIANE 5 R/B

ActifHEO
NORAD 33462·ROCKET BODY·🇫🇷 France

Lancé Dec 20, 2008 depuis Guiana Space Centre

Loading…

Prochains Passages (prochaines 24 heures)

TLE

FraisSource: Space-Track

Époque: Sep 14, 2026, 11:48 UTC

1 33462U 08065D   26257.49211061  .00002426  00000-0  98264-3 0  9999
2 33462   4.1369 287.7708 7092675  52.8626 352.8437  2.50860371154674

Suivez ARIANE 5 R/B en temps réel avec AllMySat

Download on the App Store